CW5193 New Chelsea NF CA current weather conditions

sailwx.info

Wind from 172

Air temperature -0.6° C
Dewpoint -1.4° C

Last reported at 2015-Jan-31 21:42 UTC.
Time now 2015-Jan-31 22:44 UTC

Location: N 48°02' W 053°13'.
View on Google Maps.

See reports from other nearby stations

  
Tides and Currents Weather Stations Pressure Air Temp Water Temp Dewpoint Dewpoint Depression Visibility Wind Speed Wind Dir Waves Ship Positions
date/time (UTC)wind fromknots sea level pressurealtimeterstation pressurevisibilityair tempwater tempwave heightnotes
2015-Jan-31 21:42 172 -0.6
2015-Jan-31 21:31 137 -0.6
2015-Jan-31 21:22 133 -0.6
2015-Jan-31 21:11 132 -0.6
2015-Jan-31 21:01 102 -0.6
2015-Jan-31 20:51 144 -0.6
2015-Jan-31 20:42 115 -0.6
2015-Jan-31 20:31 146 -0.6
2015-Jan-31 20:21 134 -0.6
2015-Jan-31 20:11 150 -0.6
2015-Jan-31 20:01 100 -0.6
2015-Jan-31 19:51 096 -0.6
2015-Jan-31 19:41 155 -0.6
2015-Jan-31 19:31 186 -0.6
2015-Jan-31 19:21 148 -0.6
2015-Jan-31 19:11 133 -0.6
2015-Jan-31 19:01 115 -0.6
2015-Jan-31 18:51 136 -0.6
2015-Jan-31 18:41 102 -0.6
2015-Jan-31 18:31 238 -0.6
2015-Jan-31 18:21 110 -0.6
2015-Jan-31 18:11 136 -0.6
2015-Jan-31 18:01 078 -0.6
2015-Jan-31 17:51 112 -1.1
2015-Jan-31 17:41 144 -1.1
2015-Jan-31 17:31 162 -1.1
2015-Jan-31 17:21 128 -1.1
2015-Jan-31 17:11 110 -1.1
2015-Jan-31 17:01 132 -1.1
2015-Jan-31 16:51 132 -0.6
2015-Jan-31 16:41 119 -0.6
2015-Jan-31 16:31 165 -0.6
2015-Jan-31 16:21 082 -0.6
2015-Jan-31 16:11 113 -0.0
2015-Jan-31 16:01 109 -0.0
2015-Jan-31 15:51 125 -0.0
2015-Jan-31 15:41 122 -0.0
2015-Jan-31 15:31 101 -0.0
2015-Jan-31 15:21 144 0.6
2015-Jan-31 15:11 152 -0.0
2015-Jan-31 15:01 209 -0.0
2015-Jan-31 14:51 217 -0.6
2015-Jan-31 14:41 217 -0.6
2015-Jan-31 14:31 221 -0.6
2015-Jan-31 14:21 221 -0.6
2015-Jan-31 14:11 221 -1.1
2015-Jan-31 14:01 229 -1.1
2015-Jan-31 13:51 229 -1.1
2015-Jan-31 13:41 229 -1.1
2015-Jan-31 13:31 229 -1.1
2015-Jan-31 13:21 229 -1.1
2015-Jan-31 13:11 229 -0.6
2015-Jan-31 13:01 229 -1.1
2015-Jan-31 12:51 229 -1.1
2015-Jan-31 12:42 229 -1.1
2015-Jan-31 11:21 229 -3.9
2015-Jan-31 11:11 228 -3.9
2015-Jan-31 11:01 228 -3.9
2015-Jan-31 10:51 227 -3.9
2015-Jan-31 10:41 227 -3.3
2015-Jan-31 10:31 223 -3.3
2015-Jan-31 10:21 224 -3.3
2015-Jan-31 10:11 223 -3.3
2015-Jan-31 10:01 223 -3.3
2015-Jan-31 09:51 223 -2.8
2015-Jan-31 09:41 223 -2.8
2015-Jan-31 09:31 223 -2.8
2015-Jan-31 09:21 221 -2.8
2015-Jan-31 09:11 218 -2.8
2015-Jan-31 09:01 218 -2.2
2015-Jan-31 08:51 219 -2.2
2015-Jan-31 08:41 204 -2.2
2015-Jan-31 08:31 200 -2.2
2015-Jan-31 08:21 263 -2.2
2015-Jan-31 08:11 259 -2.2
2015-Jan-31 08:01 250 -2.2
2015-Jan-31 07:51 259 -2.2
2015-Jan-31 07:41 250 -2.2
2015-Jan-31 07:31 252 -2.2
2015-Jan-31 07:21 278 -2.2
2015-Jan-31 07:11 265 -2.2
2015-Jan-31 07:01 246 -2.2
2015-Jan-31 06:51 252 -2.2
2015-Jan-31 06:41 248 -2.2
2015-Jan-31 06:31 269 -2.2
2015-Jan-31 06:21 233 -2.2
2015-Jan-31 06:11 221 -2.2
2015-Jan-31 06:01 273 -2.2
2015-Jan-31 05:51 254 -2.2
2015-Jan-31 05:41 255 -2.2
2015-Jan-31 05:31 249 -2.2
2015-Jan-31 05:21 288 -2.2
2015-Jan-31 05:11 274 -2.2
2015-Jan-31 05:01 274 -2.2
2015-Jan-31 04:51 264 -2.2
2015-Jan-31 04:41 259 -2.2
2015-Jan-31 04:31 286 -2.2
2015-Jan-31 04:21 269 -2.2
2015-Jan-31 04:11 248 -2.2
2015-Jan-31 04:01 248 -2.2
2015-Jan-31 03:51 240 -1.7
2015-Jan-31 03:41 286 -1.7
2015-Jan-31 03:31 277 -1.7
2015-Jan-31 03:21 287 -1.7
2015-Jan-31 03:11 285 -1.7
2015-Jan-31 03:01 301 -1.1
2015-Jan-31 02:51 262 -1.1
2015-Jan-31 02:31 298 -1.1
2015-Jan-31 02:21 290 -0.6
2015-Jan-31 02:11 253 -0.6
2015-Jan-31 02:01 276 -0.6
2015-Jan-31 01:51 261 -0.6
2015-Jan-31 01:41 250 -0.6
2015-Jan-31 01:31 265 -0.6
2015-Jan-31 01:21 256 -0.0
2015-Jan-31 01:11 286 -0.0
2015-Jan-31 00:41 281 -0.0
2015-Jan-31 00:31 268 -0.0
2015-Jan-31 00:21 229 0.6
2015-Jan-31 00:11 248 0.6
2015-Jan-31 00:01 207 0.6
2015-Jan-30 23:51 264 0.6
2015-Jan-30 23:41 267 0.6
2015-Jan-30 23:31 286 0.6
2015-Jan-30 23:21 273 0.6
2015-Jan-30 23:11 263 0.6
2015-Jan-30 23:01 277 0.6
2015-Jan-30 22:51 278 0.6
2015-Jan-30 22:41 344 0.6
2015-Jan-30 22:31 344 0.6
2015-Jan-30 22:21 019 0.6
2015-Jan-30 22:11 018 0.6
2015-Jan-30 22:01 048 0.6
2015-Jan-30 21:51 049 0.6
2015-Jan-30 21:41 048 0.6
2015-Jan-30 21:31 042 0.6
2015-Jan-30 21:21 355 0.6
2015-Jan-30 21:11 355 0.6
2015-Jan-30 21:01 017 0.6
2015-Jan-30 20:51 009 -0.0
2015-Jan-30 20:41 049 -0.0
2015-Jan-30 20:31 048 -0.0
2015-Jan-30 20:21 044 -0.0
2015-Jan-30 20:11 055 -0.0
2015-Jan-30 20:01 060 -0.0
2015-Jan-30 19:51 053 -0.0
2015-Jan-30 19:41 040 -0.0
2015-Jan-30 19:31 054 -0.0
2015-Jan-30 19:21 042 -0.0
2015-Jan-30 19:11 041 -0.0
2015-Jan-30 19:01 059 -0.0
2015-Jan-30 18:51 049 0.6
2015-Jan-30 18:41 065 0.6
2015-Jan-30 18:31 061 0.6
2015-Jan-30 18:21 053 0.6
2015-Jan-30 18:11 044 0.6
2015-Jan-30 18:01 350 0.6
2015-Jan-30 17:51 055 2 gusting 5 0.6
2015-Jan-30 17:41 042 4 gusting 7 0.6
2015-Jan-30 17:31 069 5 gusting 8 0.6
2015-Jan-30 17:21 063 4 gusting 9 0.6
2015-Jan-30 17:11 067 6 gusting 10 0.6
2015-Jan-30 17:01 074 6 gusting 11 0.6
2015-Jan-30 16:51 063 7 gusting 11 0.6
2015-Jan-30 16:41 074 6 gusting 12 0.6
2015-Jan-30 16:31 080 9 gusting 13 0.6
2015-Jan-30 16:21 092 7 gusting 14 0.6
2015-Jan-30 16:11 086 9 gusting 12 0.6
2015-Jan-30 16:01 076 8 gusting 13 0.6
2015-Jan-30 15:51 068 9 gusting 11 0.6
2015-Jan-30 15:41 080 6 gusting 11 0.6
2015-Jan-30 15:31 071 6 gusting 13 0.6
2015-Jan-30 15:21 074 9 gusting 15 0.6
2015-Jan-30 15:11 084 7 gusting 12 0.6
2015-Jan-30 15:01 090 7 gusting 14 0.6
2015-Jan-30 14:51 067 10 gusting 14 0.6
2015-Jan-30 14:41 082 11 gusting 13 0.6
2015-Jan-30 14:31 086 11 gusting 16 -0.0
2015-Jan-30 14:21 078 9 gusting 13 -0.0
2015-Jan-30 14:11 068 10 gusting 17 -0.0
2015-Jan-30 14:01 078 13 gusting 16 -0.0
2015-Jan-30 13:51 076 10 gusting 15 -0.0
2015-Jan-30 13:41 075 10 gusting 14 -0.0
2015-Jan-30 13:31 081 13 gusting 18 -0.6
2015-Jan-30 13:21 093 15 gusting 19 -0.6
2015-Jan-30 13:11 071 13 gusting 17 -0.6
2015-Jan-30 13:01 072 13 gusting 18 -0.6
2015-Jan-30 12:51 078 14 gusting 21 -0.6
2015-Jan-30 12:41 092 15 gusting 19 -0.6
2015-Jan-30 12:31 082 16 gusting 20 -0.6
2015-Jan-30 12:21 078 13 gusting 22 -1.1
2015-Jan-30 12:11 067 15 gusting 20 -1.1
2015-Jan-30 12:01 089 13 gusting 19 -1.1
2015-Jan-30 11:51 059 14 gusting 19 -1.1
2015-Jan-30 11:41 084 13 gusting 19 -1.7
2015-Jan-30 11:31 067 13 gusting 19 -1.7
2015-Jan-30 11:21 075 14 gusting 17 -1.7
2015-Jan-30 11:11 076 14 gusting 20 -1.7
2015-Jan-30 11:01 080 19 gusting 21 -1.7
2015-Jan-30 10:51 090 12 gusting 16 -1.7
2015-Jan-30 10:41 074 13 gusting 19 -1.7
2015-Jan-30 10:31 076 15 gusting 18 -1.7
2015-Jan-30 10:21 078 15 gusting 18 -1.7
2015-Jan-30 10:11 084 16 gusting 19 -1.7
2015-Jan-30 10:01 069 15 gusting 20 -1.7
2015-Jan-30 09:51 065 16 gusting 23 -2.2
2015-Jan-30 09:41 079 17 gusting 21 -2.2
2015-Jan-30 09:31 069 17 gusting 23 -2.2
2015-Jan-30 09:21 077 17 gusting 22 -2.2
2015-Jan-30 09:11 077 17 gusting 24 -2.2
2015-Jan-30 09:01 082 16 gusting 21 -2.2
2015-Jan-30 08:51 067 15 gusting 21 -2.2
2015-Jan-30 08:41 064 16 gusting 22 -2.2
2015-Jan-30 08:31 068 20 gusting 24 -2.2
2015-Jan-30 08:21 065 15 gusting 21 -2.2
2015-Jan-30 08:11 067 16 gusting 20 -2.2
2015-Jan-30 08:01 069 16 gusting 19 -2.2
2015-Jan-30 07:51 064 17 gusting 22 -2.8
2015-Jan-30 07:41 073 16 gusting 19 -2.8
2015-Jan-30 07:31 069 13 gusting 21 -2.2
2015-Jan-30 07:21 088 15 gusting 19 -2.8
2015-Jan-30 07:11 076 17 gusting 19 -2.8
2015-Jan-30 07:01 074 16 gusting 19 -2.8
2015-Jan-30 06:51 084 15 gusting 22 -2.8
2015-Jan-30 06:41 069 18 gusting 21 -2.8
2015-Jan-30 06:31 064 16 gusting 23 -2.8
2015-Jan-30 06:21 072 15 gusting 19 -2.8
2015-Jan-30 06:11 065 18 gusting 21 -2.8
2015-Jan-30 06:01 072 15 gusting 19 -2.8
2015-Jan-30 05:51 078 16 gusting 20 -2.8
2015-Jan-30 05:41 074 17 gusting 22 -2.8
2015-Jan-30 05:31 061 16 gusting 18 -2.8
2015-Jan-30 05:21 069 18 gusting 19 -2.8
2015-Jan-30 05:11 068 15 gusting 20 -2.8
2015-Jan-30 05:01 060 16 gusting 19 -2.8
2015-Jan-30 04:51 080 15 gusting 19 -2.8
2015-Jan-30 04:41 060 18 gusting 20 -2.8
2015-Jan-30 04:31 081 13 gusting 16 -3.3
2015-Jan-30 04:21 080 15 gusting 17 -3.3
2015-Jan-30 04:11 062 14 gusting 19 -3.3
2015-Jan-30 04:01 056 18 gusting 22 -3.3
2015-Jan-30 03:51 073 18 gusting 20 -3.3
2015-Jan-30 03:41 063 19 gusting 21 -3.3
2015-Jan-30 03:31 063 16 gusting 22 -3.3
2015-Jan-30 03:21 066 15 gusting 20 -3.3
2015-Jan-30 03:11 072 18 gusting 21 -2.8
2015-Jan-30 03:01 074 14 gusting 19 -2.8
2015-Jan-30 02:51 067 16 gusting 21 -2.8
2015-Jan-30 02:41 069 19 gusting 22 -2.8
2015-Jan-30 02:31 073 16 gusting 19 -2.8
2015-Jan-30 02:21 074 17 gusting 22 -2.8
2015-Jan-30 02:11 072 19 gusting 21 -2.8
2015-Jan-30 02:01 069 19 gusting 22 -2.8
2015-Jan-30 01:51 058 19 gusting 21 -2.2
2015-Jan-30 01:41 060 15 gusting 20 -2.2
2015-Jan-30 01:31 067 15 gusting 20 -2.2
2015-Jan-30 01:21 064 16 gusting 20 -1.7
2015-Jan-30 01:11 072 17 gusting 20 -1.7
2015-Jan-30 01:01 065 17 gusting 19 -1.1
2015-Jan-30 00:51 071 16 gusting 20 -1.1
2015-Jan-30 00:41 071 15 gusting 18 -1.1
2015-Jan-30 00:31 069 16 gusting 19 -1.1
2015-Jan-30 00:21 071 14 gusting 19 -0.6
2015-Jan-30 00:11 065 16 gusting 19 -0.6
2015-Jan-30 00:01 072 14 gusting 19 -0.6
2015-Jan-29 23:51 060 13 gusting 17 -0.0
2015-Jan-29 23:41 060 18 gusting 20 -0.0
2015-Jan-29 23:31 059 16 gusting 20 -0.0
2015-Jan-29 23:21 056 15 gusting 19 -0.0
2015-Jan-29 23:11 059 15 gusting 19 -0.0
2015-Jan-29 23:01 045 14 gusting 19 0.6
2015-Jan-29 22:51 061 11 gusting 14 0.6
2015-Jan-29 22:41 068 12 gusting 13 0.6
2015-Jan-29 22:31 063 7 gusting 9 0.6
2015-Jan-29 22:21 262 -0.0
2015-Jan-29 22:11 262 -0.0
2015-Jan-29 22:01 262 -0.0